DW8016 Weather Reports


time (UTC)temp
C
wind
direction
speed
KPH
gust
KPH
rain 1hr
cm
rain 24hr
cm
rain mn
cm
humidity
%
barometer
mb
20260906132027 23 59 0.0 0.0 0.00 0.00 0.00 71 1014.9
20260906131005 22 355 0.0 3.2 0.00 0.00 0.00 73 1014.9
20260906125943 22 161 0.0 0.0 0.00 0.00 0.00 76 1014.8
20260906124957 21 161 0.0 0.0 0.00 0.00 0.00 78 1014.8
20260906124018 21 161 0.0 0.0 0.00 0.00 0.00 80 1014.8
20260906123024 21 161 0.0 1.6 0.00 0.00 0.00 79 1014.7
20260906122004 20 161 0.0 0.0 0.00 0.00 0.00 82 1014.6
20260906121016 20 161 0.0 0.0 0.00 0.00 0.00 84 1014.5
20260906120027 18 161 0.0 0.0 0.00 0.00 0.00 86 1014.4
20260906115003 18 161 0.0 0.0 0.00 0.00 0.00 89 1014.3
20260906112848 17 161 0.0 0.0 0.00 0.00 0.00 93 1014.2
20260906111912 17 161 0.0 0.0 0.00 0.00 0.00 94 1014.1
20260906110908 16 165 0.0 0.0 0.00 0.00 0.00 93 1014.1
20260906103531 16 165 0.0 0.0 0.00 0.00 0.00 92 1013.5
20260906102536 16 165 0.0 0.0 0.00 0.00 0.00 92 1013.3
20260906101547 16 165 0.0 0.0 0.00 0.00 0.00 92 1013.2
20260906100516 16 165 0.0 0.0 0.00 0.00 0.00 92 1013.1
20260906095513 16 165 0.0 0.0 0.00 0.00 0.00 92 1012.9
20260906093348 17 165 0.0 0.0 0.00 0.00 0.00 92 1012.9
20260906092402 17 165 0.0 0.0 0.00 0.00 0.00 92 1012.8
20260906091337 17 165 0.0 0.0 0.00 0.00 0.00 92 1012.6
20260906090308 17 165 0.0 0.0 0.00 0.00 0.00 92 1012.5
20260906085256 17 165 0.0 0.0 0.00 0.00 0.00 91 1012.4
20260906084226 17 165 0.0 0.0 0.00 0.00 0.00 91 1012.4
20260906083235 17 165 0.0 0.0 0.00 0.00 0.00 92 1012.3
20260906082234 17 165 0.0 0.0 0.00 0.00 0.00 91 1012.3
20260906081252 17 165 0.0 0.0 0.00 0.00 0.00 91 1012.3
20260906080314 17 165 0.0 0.0 0.00 0.00 0.00 91 1012.2
20260906075249 17 165 0.0 0.0 0.00 0.00 0.00 91 1012.2
20260906074220 18 165 0.0 0.0 0.00 0.00 0.00 91 1012.2
20260906073206 18 165 0.0 0.0 0.00 0.00 0.00 91 1012.2
20260906072222 18 165 0.0 0.0 0.00 0.00 0.00 91 1012.1
20260906070139 18 165 0.0 0.0 0.00 0.00 0.00 90 1012.1
20260906065135 18 165 0.0 0.0 0.00 0.00 0.00 90 1012.1
20260906064147 18 165 0.0 0.0 0.00 0.00 0.00 90 1012.0
20260906063154 18 165 0.0 0.0 0.00 0.00 0.00 90 1011.9
20260906062125 18 165 0.0 0.0 0.00 0.00 0.00 89 1012.1
20260906061110 19 165 0.0 0.0 0.00 0.00 0.00 89 1012.1
20260906060039 19 165 0.0 0.0 0.00 0.00 0.00 89 1012.1
20260906055102 19 165 0.0 0.0 0.00 0.00 0.00 89 1012.1
20260906054120 19 165 0.0 0.0 0.00 0.00 0.00 88 1012.0
20260906053127 20 165 0.0 0.0 0.00 0.00 0.00 87 1012.0
20260906052141 20 165 0.0 0.0 0.00 0.00 0.00 86 1012.1
20260906051124 20 165 0.0 0.0 0.00 0.00 0.00 86 1012.2
20260906050100 20 165 0.0 0.0 0.00 0.00 0.00 85 1012.2
20260906045027 21 165 0.0 0.0 0.00 0.00 0.00 85 1012.3
20260906044011 21 165 0.0 0.0 0.00 0.00 0.00 84 1012.4
20260906043033 21 165 0.0 0.0 0.00 0.00 0.00 82 1012.5
20260906042008 21 165 0.0 0.0 0.00 0.00 0.00 81 1012.6
20260906041020 22 165 0.0 0.0 0.00 0.00 0.00 81 1012.5
20260906034907 22 165 0.0 0.0 0.00 0.00 0.00 81 1012.3
20260906033844 22 165 0.0 0.0 0.00 0.00 0.00 79 1012.3
20260906032814 23 165 0.0 0.0 0.00 0.00 0.00 79 1012.4
20260906031826 23 165 0.0 0.0 0.00 0.00 0.00 78 1012.6
20260906030830 23 165 0.0 0.0 0.00 0.00 0.00 76 1012.5
20260906025812 23 165 0.0 0.0 0.00 0.00 0.00 75 1012.4
20260906024824 23 165 0.0 0.0 0.00 0.00 0.00 76 1012.2
20260906020356 24 165 0.0 0.0 0.00 0.00 0.00 73 1012.3
20260906014244 24 165 0.0 0.0 0.00 0.00 0.00 73 1012.1
20260906013308 24 165 0.0 0.0 0.00 0.00 0.00 73 1011.9
20260906012331 24 165 0.0 0.0 0.00 0.00 0.00 72 1011.8
20260906011341 24 165 0.0 0.0 0.00 0.00 0.00 72 1011.8
20260906010345 24 165 0.0 0.0 0.00 0.00 0.00 71 1011.5
20260906005400 25 165 0.0 0.0 0.00 0.00 0.00 71 1011.5
20260906004405 25 165 0.0 0.0 0.00 0.00 0.00 71 1011.3
20260906003359 25 165 0.0 0.0 0.00 0.00 0.00 71 1011.3
20260906002345 25 165 0.0 0.0 0.00 0.00 0.00 71 1011.2
20260906001405 25 165 0.0 0.0 0.00 0.00 0.00 70 1011.2
20260906000410 25 165 0.0 0.0 0.00 0.00 0.00 70 1011.1
20260905235348 25 165 0.0 0.0 0.00 0.00 0.00 70 1011.0
20260905234338 25 165 0.0 0.0 0.00 0.00 0.00 72 1011.0
20260905232248 26 165 0.0 0.0 0.00 0.00 0.00 73 1010.7
20260905231247 26 165 0.0 0.0 0.00 0.00 0.00 71 1010.6
20260905225110 26 165 0.0 0.0 0.00 0.00 0.00 67 1010.6
20260905224110 26 165 0.0 0.0 0.00 0.00 0.00 66 1010.5
20260905223046 27 165 0.0 0.0 0.00 0.00 0.00 66 1010.4
20260905222021 27 165 0.0 0.0 0.00 0.00 0.00 67 1010.5
20260905221010 27 165 0.0 0.0 0.00 0.00 0.00 66 1010.4
20260905214840 27 165 0.0 0.0 0.00 0.00 0.00 69 1010.3
20260905213807 26 165 0.0 1.6 0.00 0.00 0.00 66 1010.2
20260905212819 27 165 0.0 0.0 0.00 0.00 0.00 68 1010.0
20260905211814 27 165 0.0 0.0 0.00 0.00 0.00 67 1009.9
20260905210812 27 165 0.0 0.0 0.00 0.00 0.00 68 1009.8
20260905205811 27 165 0.0 1.6 0.00 0.00 0.00 67 1009.7
20260905204744 27 165 0.0 0.0 0.00 0.00 0.00 66 1009.8
20260905202600 28 0 0.0 1.6 0.00 0.00 0.00 65 1009.8
20260905201618 27 0 0.0 9.7 0.00 0.00 0.00 65 1009.9
20260905200641 28 9 0.0 6.4 0.00 0.00 0.00 65 1009.8
20260905195652 28 87 0.0 8.0 0.00 0.00 0.00 64 1010.0
20260905192430 28 104 0.0 8.0 0.00 0.00 0.00 63 1010.0
20260905191431 28 355 0.0 6.4 0.00 0.00 0.00 65 1010.1
20260905190408 28 91 1.6 8.0 0.00 0.00 0.00 67 1010.1
20260905185428 28 288 0.0 8.0 0.00 0.00 0.00 69 1010.3
20260905184359 27 315 0.0 1.6 0.00 0.00 0.00 70 1010.3
20260905183327 27 315 0.0 0.0 0.00 0.00 0.00 72 1010.5
20260905182334 27 316 0.0 4.8 0.00 0.00 0.00 72 1010.7
20260905181329 27 316 0.0 4.8 0.00 0.00 0.00 71 1010.7
20260905180323 27 288 0.0 1.6 0.00 0.00 0.00 72 1010.9
20260905175316 27 288 0.0 0.0 0.00 0.00 0.00 71 1011.1
20260905174253 28 288 0.0 1.6 0.00 0.00 0.00 68 1011.1
20260905173221 28 288 0.0 1.6 0.00 0.00 0.00 67 1011.2
20260905172245 29 288 0.0 6.4 0.00 0.00 0.00 65 1011.3
20260905171246 28 286 0.0 4.8 0.00 0.00 0.00 67 1011.4
20260905170250 27 282 0.0 4.8 0.00 0.00 0.00 69 1011.6
20260905165237 28 347 0.0 6.4 0.00 0.00 0.00 69 1011.8
20260905163029 27 248 0.0 4.8 0.00 0.00 0.00 71 1011.6
20260905160909 27 214 0.0 1.6 0.00 0.00 0.00 73 1012.0
20260905155932 27 65 0.0 1.6 0.00 0.00 0.00 72 1012.1
20260905153733 26 63 0.0 1.6 0.00 0.00 0.00 72 1012.0
20260905151630 26 64 0.0 0.0 0.00 0.00 0.00 72 1012.3
20260905150650 26 63 0.0 0.0 0.00 0.00 0.00 74 1012.4
20260905145709 26 63 0.0 0.0 0.00 0.00 0.00 72 1012.4
20260905144710 26 63 0.0 0.0 0.00 0.00 0.00 72 1012.2
20260905142528 26 63 0.0 4.8 0.00 0.00 0.00 71 1012.0
20260905141500 26 119 0.0 3.2 0.00 0.00 0.00 72 1011.9
20260905140457 26 98 0.0 8.0 0.00 0.00 0.00 73 1011.6
20260905134324 26 115 0.0 1.6 0.00 0.00 0.00 79 1011.4